Location: ????????
(38.4362°N, 22.8767°E)
Time: 06:19:48
(UTC+00:00)

Cosmos 1766 - Visible Passes

Search period start: 13 July 2024 00:00
Search period end: 23 July 2024 00:00
Orbit: 484 x 501 km, 82.5° (Epoch: 12 July)

Date Brightness Start Highest point End Pass type
(mag) Time Alt. Az. Time Alt. Az. Time Alt. Az.
16 Jul 5.5 02:42:55 10° SSE 02:46:01 25° E 02:49:07 10° NE visible
17 Jul 6.0 02:21:24 10° SE 02:23:50 17° E 02:26:16 10° NE visible
18 Jul 6.3 02:00:36 10° ESE 02:01:40 11° E 02:02:44 10° ENE visible
20 Jul 3.2 02:48:01 10° S 02:51:44 83° E 02:55:28 10° N visible
21 Jul 4.0 02:25:48 10° S 02:29:24 50° E 02:33:00 10° NNE visible
22 Jul 4.9 02:03:44 10° SSE 02:07:03 32° E 02:10:23 10° NNE visible
